Date String (YYYY-MM-DD hh:mm:ss) UTC,Instrument flags,absolute air pressure of the measurement (hPa),sample flow rate (lpm),inlet stack bypass flow (lpm),air temperature of the measurement (°C),ambient temperature measured by the external sensor (°C),aerosol sample conditioner tube jacket temperature (°C),OPC LED temperature (°C),internal box temperature (°C),relative humidity of the measurement (%),span deviation,mass concentration of particles derived from Lorenz-Mie calculation of OPC scattering (μg/m³),mass concentration of particles derived from Lorenz-Mie calculation of OPC scattering (μg/m³),mass concentration of particles derived from Lorenz-Mie calculation of OPC scattering (μg/m³)
DateTimeUTC,F1_M11,P_M11,Q1_M11,Q2_M11,T1_M11,T2_M11,T3_M11,T4_M11,T5_M11,U1_M11,ZSPAN_M11,X2_M11,X0_M11,X1_M11
2023-10-14 09:00:00,SystemResetWarning,0836.4,5.00,000.00,027.1,025.6,000.0,035.5,028.8,13.4,0000.0,0002.79,0003.76,0002.45
2023-10-14 09:01:00,SystemResetWarning,0836.4,5.00,000.00,027.1,025.6,000.0,035.5,028.8,13.4,0000.0,0002.81,0003.96,0002.43
2023-10-14 09:02:00,SystemResetWarning,0836.4,5.00,000.00,027.1,025.6,000.0,035.5,028.8,13.4,0000.0,0002.78,0003.85,0002.43
2023-10-14 09:03:00,SystemResetWarning,0836.4,5.00,000.00,027.1,025.6,000.0,035.5,028.8,13.4,0000.0,0002.81,0003.90,0002.44
2023-10-14 09:04:00,SystemResetWarning,0836.4,5.00,000.00,027.1,025.6,000.0,035.5,028.8,13.4,0000.0,0002.83,0003.93,0002.45
2023-10-14 09:05:00,SystemResetWarning,0836.4,5.00,000.00,027.1,025.6,000.0,035.5,028.8,13.4,0000.0,0002.81,0003.81,0002.48
2023-10-14 09:06:00,SystemResetWarning,0836.4,5.00,000.00,027.1,025.6,000.0,035.5,028.8,13.4,0000.0,0002.79,0003.89,0002.49
2023-10-14 09:07:00,SystemResetWarning,0836.4,4.99,000.00,027.1,025.6,000.0,035.5,028.8,13.5,0000.0,0002.80,0004.33,0002.49
2023-10-14 09:08:00,SystemResetWarning,0836.3,5.00,000.00,027.1,025.6,000.0,035.5,028.8,13.5,0000.0,0002.79,0004.27,0002.50
2023-10-14 09:09:00,SystemResetWarning,0836.3,5.00,000.00,027.1,025.6,000.0,035.5,028.8,13.5,0000.0,0002.82,0004.47,0002.51
2023-10-14 09:10:00,SystemResetWarning,0836.3,5.00,000.00,027.1,025.6,000.0,035.5,028.8,13.5,0000.0,0002.83,0004.61,0002.51
2023-10-14 09:11:00,SystemResetWarning,0836.3,5.00,000.00,027.1,025.6,000.0,035.5,028.8,13.5,0000.0,0002.84,0004.54,0002.52
2023-10-14 09:12:00,SystemResetWarning,0836.3,5.01,000.00,027.1,025.6,000.0,035.5,028.8,13.5,0000.0,0002.84,0004.87,0002.53
2023-10-14 09:13:00,SystemResetWarning,0836.4,5.00,000.00,027.1,025.6,000.0,035.5,028.8,13.5,0000.0,0002.87,0005.01,0002.56
2023-10-14 09:14:00,SystemResetWarning,0836.4,5.00,000.00,027.1,025.6,000.0,035.5,028.8,13.5,0000.0,0002.83,0004.92,0002.57
2023-10-14 09:15:00,SystemResetWarning,0836.4,5.00,000.00,027.1,025.6,000.0,035.5,028.8,13.5,0000.0,0002.80,0005.11,0002.55
2023-10-14 09:16:00,SystemResetWarning,0836.3,4.99,000.00,027.1,025.6,000.0,035.5,028.8,13.4,0000.0,0002.81,0005.55,0002.55
2023-10-14 09:17:00,SystemResetWarning,0836.3,4.99,000.00,027.1,025.6,000.0,035.5,028.8,13.4,0000.0,0002.83,0005.51,0002.55
2023-10-14 09:18:00,SystemResetWarning,0836.2,5.00,000.00,027.1,025.6,000.0,035.5,028.8,13.3,0000.0,0002.83,0005.09,0002.54
2023-10-14 09:19:00,SystemResetWarning,0836.3,5.00,000.00,027.1,025.6,000.0,035.5,028.8,13.3,0000.0,0002.82,0005.11,0002.53
2023-10-14 09:20:00,SystemResetWarning,0836.3,5.00,000.00,027.1,025.6,000.0,035.5,028.8,13.3,0000.0,0002.81,0004.97,0002.53
2023-10-14 09:21:00,SystemResetWarning,0836.3,5.00,000.00,027.1,025.6,000.0,035.5,028.8,13.4,0000.0,0002.78,0004.77,0002.51
2023-10-14 09:22:00,SystemResetWarning,0836.3,5.01,000.00,027.1,025.5,000.0,035.5,028.8,13.4,0000.0,0002.76,0005.27,0002.51
2023-10-14 09:23:00,SystemResetWarning,0836.3,5.00,000.00,027.1,025.5,000.0,035.5,028.8,13.4,0000.0,0002.74,0005.05,0002.50
2023-10-14 09:24:00,SystemResetWarning,0836.3,4.99,000.00,027.1,025.6,000.0,035.5,028.8,13.4,0000.0,0002.73,0005.40,0002.47
2023-10-14 09:25:00,SystemResetWarning,0836.3,4.99,000.00,027.1,025.6,000.0,035.5,028.8,13.4,0000.0,0002.69,0005.34,0002.45
2023-10-14 09:26:00,SystemResetWarning,0836.3,5.00,000.00,027.1,025.6,000.0,035.5,028.8,13.4,0000.0,0002.69,0005.20,0002.43
2023-10-14 09:27:00,SystemResetWarning,0836.3,5.01,000.00,027.1,025.5,000.0,035.5,028.8,13.5,0000.0,0002.67,0004.70,0002.41
2023-10-14 09:28:00,SystemResetWarning,0836.2,5.00,000.00,027.1,025.5,000.0,035.5,028.8,13.5,0000.0,0002.64,0004.68,0002.40
2023-10-14 09:29:00,SystemResetWarning,0836.4,5.00,000.00,027.1,025.5,000.0,035.5,028.8,13.5,0000.0,0002.64,0004.75,0002.40
2023-10-14 09:30:00,SystemResetWarning,0836.3,5.00,000.00,027.1,025.5,000.0,035.5,028.8,13.5,0000.0,0002.65,0004.95,0002.42
2023-10-14 09:31:00,SystemResetWarning,0836.4,5.00,000.00,027.1,025.5,000.0,035.5,028.8,13.5,0000.0,0002.64,0004.96,0002.41
2023-10-14 09:32:00,SystemResetWarning,0836.3,4.99,000.00,027.1,025.5,000.0,035.5,028.8,13.5,0000.0,0002.66,0005.02,0002.42
2023-10-14 09:33:00,SystemResetWarning,0836.4,5.00,000.00,027.1,025.5,000.0,035.5,028.8,13.5,0000.0,0002.68,0004.56,0002.42
2023-10-14 09:34:00,SystemResetWarning,0836.4,5.01,000.00,027.1,025.5,000.0,035.5,028.8,13.5,0000.0,0002.69,0004.50,0002.42
2023-10-14 09:35:00,SystemResetWarning,0836.4,5.01,000.00,027.1,025.5,000.0,035.5,028.8,13.5,0000.0,0002.66,0003.81,0002.41
2023-10-14 09:36:00,SystemResetWarning,0836.4,5.01,000.00,027.1,025.5,000.0,035.5,028.8,13.5,0000.0,0002.65,0003.78,0002.40
2023-10-14 09:37:00,SystemResetWarning,0836.4,5.00,000.00,027.1,025.5,000.0,035.5,028.8,13.6,0000.0,0002.64,0003.77,0002.41
2023-10-14 09:38:00,SystemResetWarning,0836.4,4.99,000.00,027.1,025.5,000.0,035.5,028.8,13.6,0000.0,0002.67,0003.83,0002.40
2023-10-14 09:39:00,SystemResetWarning,0836.4,5.00,000.00,027.1,025.5,000.0,035.5,028.8,13.6,0000.0,0002.64,0003.69,0002.39
2023-10-14 09:40:00,SystemResetWarning,0836.4,5.00,000.00,027.1,025.5,000.0,035.5,028.8,13.6,0000.0,0002.63,0003.64,0002.37
2023-10-14 09:41:00,SystemResetWarning,0836.4,5.00,000.00,027.0,025.5,000.0,035.5,028.8,13.6,0000.0,0002.64,0003.71,0002.36
2023-10-14 09:42:00,SystemResetWarning,0836.3,5.01,000.00,027.0,025.5,000.0,035.5,028.8,13.6,0000.0,0002.63,0003.74,0002.35
2023-10-14 09:43:00,SystemResetWarning,0836.4,5.01,000.00,027.0,025.5,000.0,035.5,028.7,13.6,0000.0,0002.62,0003.72,0002.33
2023-10-14 09:44:00,SystemResetWarning,0836.4,5.01,000.00,027.0,025.5,000.0,035.5,028.7,13.6,0000.0,0002.60,0003.75,0002.32
2023-10-14 09:45:00,SystemResetWarning,0836.4,5.00,000.00,027.0,025.5,000.0,035.4,028.7,13.7,0000.0,0002.58,0003.69,0002.31
2023-10-14 09:46:00,SystemResetWarning,0836.4,4.99,000.00,027.0,025.5,000.0,035.4,028.7,13.7,0000.0,0002.61,0003.67,0002.34
2023-10-14 09:47:00,SystemResetWarning,0836.4,5.00,000.00,027.0,025.5,000.0,035.4,028.7,13.7,0000.0,0002.63,0003.74,0002.36
2023-10-14 09:48:00,SystemResetWarning,0836.4,5.00,000.00,027.0,025.5,000.0,035.4,028.6,13.8,0000.0,0002.64,0003.79,0002.37
2023-10-14 09:49:00,SystemResetWarning,0836.5,5.00,000.00,027.0,025.5,000.0,035.4,028.6,13.8,0000.0,0002.65,0003.87,0002.40
2023-10-14 09:50:00,SystemResetWarning,0836.5,5.00,000.00,027.0,025.5,000.0,035.4,028.6,13.8,0000.0,0002.68,0003.93,0002.42
2023-10-14 09:51:00,SystemResetWarning,0836.4,5.01,000.00,027.0,025.4,000.0,035.4,028.6,13.8,0000.0,0002.73,0004.00,0002.45
2023-10-14 09:52:00,SystemResetWarning,0836.4,5.01,000.00,027.0,025.4,000.0,035.4,028.6,13.8,0000.0,0002.74,0003.73,0002.47
2023-10-14 09:53:00,SystemResetWarning,0836.4,5.00,000.00,027.0,025.4,000.0,035.4,028.6,13.8,0000.0,0002.76,0003.80,0002.49
2023-10-14 09:54:00,SystemResetWarning,0836.4,4.99,000.00,027.0,025.4,000.0,035.4,028.7,13.8,0000.0,0002.76,0003.78,0002.50
2023-10-14 09:55:00,SystemResetWarning,0836.4,4.99,000.00,027.0,025.4,000.0,035.4,028.6,13.8,0000.0,0002.78,0003.74,0002.52
2023-10-14 09:56:00,SystemResetWarning,0836.4,4.99,000.00,027.0,025.4,000.0,035.4,028.6,13.9,0000.0,0002.78,0003.74,0002.54
2023-10-14 09:57:00,SystemResetWarning,0836.4,5.00,000.00,027.0,025.4,000.0,035.4,028.6,13.9,0000.0,0002.75,0003.75,0002.53
2023-10-14 09:58:00,SystemResetWarning,0836.3,5.00,000.00,027.0,025.4,000.0,035.4,028.6,13.8,0000.0,0002.77,0004.39,0002.53
2023-10-14 09:59:00,SystemResetWarning,0836.4,5.01,000.00,026.9,025.4,000.0,035.4,028.6,13.8,0000.0,0002.79,0004.35,0002.54
